Columbia, SC

8:45 PM EDT on August 18, 2017 (GMT -0400)
Columbia Metro

Weather History for KCAE - November, 2012

Change the Weather History Date:

Friday, November 2, 2012

  Actual Average Record
Temperature  
Mean Temperature 57 °F 59 °F  
Max Temperature 77 °F 71 °F 90 °F (1961)
Min Temperature 36 °F 46 °F 28 °F (1976)
Degree Days  
Heating Degree Days 8 7  
Month to date heating degree days 23 14  
Since 1 July heating degree days 103 134  
Cooling Degree Days 0 1  
Month to date cooling degree days 0 2  
Year to date cooling degree days 2505 2154  
Growing Degree Days 6 (Base 50)    
Moisture  
Dew Point 33 °F    
Average Humidity 47    
Maximum Humidity 70    
Minimum Humidity 23    
Precipitation  
Precipitation 0.00 in 0.09 in 1.31 in (1979)
Month to date precipitation 0.00 0.18  
Year to date precipitation 37.63 38.81  
Sea Level Pressure  
Sea Level Pressure 29.91 in    
Wind  
Wind Speed 8 mph (West)    
Max Wind Speed 25 mph    
Max Gust Speed 31 mph    
Visibility 10 miles    
Events      
T = Trace of Precipitation, MM = Missing Value Source: NWS Daily Summary

Daily Weather History Graph

Daily Weather History Graph

Search for Another Location

Airport or City:

Trip Planner

Search our weather history database for the weather conditions in past years. The results will help you decide how hot, cold, wet, or windy it might be!

Date:

Astronomy

Nov. 02, 2012 Rise Set
Actual Time 7:45 AM EDT 6:30 PM EDT
Civil Twilight 7:19 AM EDT 6:56 PM EDT
Nautical Twilight 6:49 AM EDT 7:25 PM EDT
Astronomical Twilight 6:20 AM EDT 7:55 PM EDT
Moon 9:21 PM EDT (11/2) 10:58 AM EDT (11/2)
Length of Visible Light 11h 36m
Length of Day
10h 45m
Waning Gibbous, 87% of the Moon is Illuminated
Nov 2
Waning Gibbous
Nov 6
Last Quarter
Nov 13
New
Nov 20
First Quarter
Nov 28
Full

Hourly Weather History & Observations

Time (EDT) Temp. Windchill Dew Point Humidity Pressure Visibility Wind Dir Wind Speed Gust Speed Precip Events Conditions
12:56 AM 43.0 °F 38.2 °F 27.0 °F 53% 29.94 in 10.0 mi West 8.1 mph - N/A   Clear
1:56 AM 42.1 °F 37.7 °F 26.1 °F 53% 29.94 in 10.0 mi West 6.9 mph - N/A   Clear
2:56 AM 41.0 °F - 28.0 °F 60% 29.94 in 10.0 mi Calm Calm - N/A   Clear
3:56 AM 41.0 °F 39.0 °F 27.0 °F 57% 29.94 in 10.0 mi West 3.5 mph - N/A   Clear
4:56 AM 37.0 °F 34.5 °F 28.9 °F 73% 29.94 in 10.0 mi SW 3.5 mph - N/A   Clear
5:56 AM 39.9 °F 37.8 °F 27.0 °F 60% 29.94 in 10.0 mi West 3.5 mph - N/A   Clear
6:56 AM 37.9 °F - 28.9 °F 70% 29.95 in 10.0 mi Calm Calm - N/A   Mostly Cloudy
7:56 AM 42.1 °F 40.2 °F 27.0 °F 55% 29.96 in 10.0 mi West 3.5 mph - N/A   Mostly Cloudy
8:56 AM 48.0 °F - 28.0 °F 46% 29.96 in 10.0 mi West 4.6 mph - N/A   Scattered Clouds
9:56 AM 57.2 °F - 30.2 °F 36% 29.96 in 10.0 mi WSW 5.8 mph - N/A   Partly Cloudy
10:56 AM 64.0 °F - 30.9 °F 29% 29.95 in 10.0 mi West 11.5 mph 18.4 mph N/A   Partly Cloudy
11:56 AM 68.0 °F - 33.1 °F 27% 29.92 in 10.0 mi WSW 11.5 mph - N/A   Scattered Clouds
12:56 PM 72.0 °F - 34.0 °F 25% 29.90 in 10.0 mi WSW 13.8 mph - N/A   Scattered Clouds
1:56 PM 73.0 °F - 34.0 °F 24% 29.86 in 10.0 mi WSW 16.1 mph 27.6 mph N/A   Scattered Clouds
2:56 PM 75.0 °F - 35.1 °F 23% 29.84 in 10.0 mi West 21.9 mph 25.3 mph N/A   Scattered Clouds
3:56 PM 75.9 °F - 36.0 °F 23% 29.83 in 10.0 mi West 17.3 mph 26.5 mph N/A   Scattered Clouds
4:56 PM 75.9 °F - 36.0 °F 23% 29.83 in 10.0 mi West 23.0 mph 26.5 mph N/A   Scattered Clouds
5:56 PM 73.9 °F - 37.0 °F 26% 29.84 in 10.0 mi West 13.8 mph 19.6 mph N/A   Scattered Clouds
6:56 PM 68.0 °F - 39.0 °F 35% 29.86 in 10.0 mi West 6.9 mph - N/A   Scattered Clouds
7:56 PM 61.0 °F - 42.1 °F 50% 29.88 in 10.0 mi West 3.5 mph - N/A   Scattered Clouds
8:56 PM 57.0 °F - 43.0 °F 59% 29.91 in 10.0 mi Calm Calm - N/A   Clear
9:56 PM 63.0 °F - 39.9 °F 43% 29.94 in 10.0 mi WNW 8.1 mph - N/A   Clear
10:56 PM 63.0 °F - 37.0 °F 38% 29.95 in 10.0 mi NNW 3.5 mph - N/A   Scattered Clouds
11:56 PM 55.0 °F - 41.0 °F 59% 29.97 in 10.0 mi Calm Calm - N/A   Scattered Clouds